World > North America > United States > New Jersey > Brick

Hourly Brick, NJ Regional Weather

Feedback E-mail the Weather

Quick WX

Brick, NJ Weather Maps

°F °C°F °C
Brick Weather Map
UTC Time: 9/29/2022, 11:11
Your Time:

Brick, NJ Regional Weather

Expires:202209291200;;645959
ASUS41 KOKX 291110
RWROKX

Regional Weather Roundup
National Weather Service New York NY
700 AM EDT THU SEP 29 2022

Note: "FAIR" indicates few or no clouds below 12,000 feet with no
significant weather and/or obstructions to visibility.


NJZ001-105-106-008-010-013-015-019>022-104-291200-
New Jersey
  
CITY           SKY/WX    TMP DP  RH WIND       PRES   REMARKS
Newark/Liberty PTCLDY    50  44  80 N7        30.33R                  
Teterboro      CLEAR     50  44  80 CALM      30.33R                  
Caldwell       CLEAR     49  44  83 CALM      30.34R                  
Somerville     CLEAR     47  44  90 CALM      30.33R                  
Linden         FAIR      53  44  71 N3        30.33S                  
Perth Amboy      N/A     54 N/A N/A N6          N/A                   
Sussex         CLEAR     43  41  93 CALM      30.35S FOG              
Andover          N/A     47  43  86 CALM      30.35R                  
Trenton        CLEAR     49  44  83 N3        30.33R                  
Millville      CLEAR     53  46  77 N10       30.30S                  
Atlantic City  CLEAR     52  46  80 N10       30.30R                  
Wrightstown    PTCLDY    49  44  84 N8        30.32R                  
Toms River     NOT AVBL                                               
Belmar         PTCLDY    52  50  93 N7        30.33R                  
$$
 

SKY/WX - Weather  TMP - Temperature  DP - Dew Point  RH - Humidity
WIND - Wind Direction/Speed PRES - Barometric Pressure VSB - Visibility
WCI - Wind Chill Index E13G22 Wind - East Wind 13 mph/Gusts of 22 mph

Trending Headlines

Trending Entertainment Headlines

Brick Radar Loop

Use the map search tool if you want to place a location marker on the radar map...

Brick Quick Facts

National Two Day Weather Forecast


E-mail the Brick Weather Forecast

Voice your opinion or tell us about page issues...